TimeEDT,TemperatureF,Dew PointF,Humidity,Sea Level PressureIn,VisibilityMPH,Wind Direction,Wind SpeedMPH,Gust SpeedMPH,PrecipitationIn,Events,Conditions,WindDirDegrees,DateUTC
12:53 AM,82.0,75.0,79,30.00,10.0,SW,4.6,-,N/A,,Unknown,220,2013-08-30 04:53:00
1:53 AM,81.0,73.9,79,29.99,10.0,Calm,Calm,-,N/A,,Unknown,0,2013-08-30 05:53:00
2:53 AM,81.0,73.0,77,29.97,10.0,WSW,3.5,-,N/A,,Unknown,250,2013-08-30 06:53:00
3:53 AM,79.0,73.0,82,29.96,10.0,Calm,Calm,-,N/A,,Unknown,0,2013-08-30 07:53:00
4:53 AM,78.1,73.0,84,29.96,10.0,Calm,Calm,-,N/A,,Unknown,0,2013-08-30 08:53:00
5:53 AM,78.1,73.0,84,29.95,10.0,Calm,Calm,-,N/A,,Unknown,0,2013-08-30 09:53:00
6:53 AM,-9999,-9999,N/A,29.96,-9999.0,Calm,Calm,-,N/A,,Unknown,0,2013-08-30 10:53:00
7:53 AM,79.0,75.0,88,29.98,10.0,Calm,Calm,-,N/A,,Unknown,0,2013-08-30 11:53:00
8:53 AM,84.0,73.9,72,30.00,10.0,West,3.5,-,N/A,,Partly Cloudy,270,2013-08-30 12:53:00
9:53 AM,86.0,70.0,59,30.01,10.0,Calm,Calm,-,N/A,,Partly Cloudy,0,2013-08-30 13:53:00
10:53 AM,87.1,71.1,59,30.02,10.0,ESE,8.1,-,N/A,,Scattered Clouds,110,2013-08-30 14:53:00
11:53 AM,88.0,70.0,55,30.01,10.0,ESE,11.5,-,N/A,,Scattered Clouds,110,2013-08-30 15:53:00
12:53 PM,88.0,73.0,61,30.00,10.0,ESE,13.8,-,N/A,,Scattered Clouds,120,2013-08-30 16:53:00
1:53 PM,89.1,73.0,59,29.99,10.0,SE,15.0,-,N/A,,Mostly Cloudy,140,2013-08-30 17:53:00
2:53 PM,-9999,-9999,N/A,29.98,-9999.0,SE,12.7,-,N/A,,Unknown,140,2013-08-30 18:53:00
3:53 PM,64.9,64.9,100,29.95,-9999.0,North,-9999.0,-,N/A,,Unknown,0,2013-08-30 19:53:00
4:53 PM,-9999,-9999,N/A,29.94,10.0,SSE,12.7,-,N/A,,Unknown,150,2013-08-30 20:53:00
5:53 PM,84.9,73.9,69,29.93,10.0,SE,11.5,-,N/A,,Scattered Clouds,140,2013-08-30 21:53:00
6:53 PM,84.9,73.9,69,29.92,10.0,SSE,8.1,-,N/A,,Scattered Clouds,160,2013-08-30 22:53:00
7:53 PM,84.0,73.0,69,29.94,10.0,South,9.2,-,N/A,,Scattered Clouds,170,2013-08-30 23:53:00
8:53 PM,84.0,72.0,67,29.94,10.0,South,4.6,-,N/A,,Unknown,170,2013-08-31 00:53:00
9:53 PM,84.0,69.1,61,29.96,10.0,South,6.9,-,N/A,,Unknown,170,2013-08-31 01:53:00
10:53 PM,82.9,71.1,67,29.97,10.0,South,8.1,-,N/A,,Unknown,170,2013-08-31 02:53:00
11:53 PM,82.9,72.0,69,29.97,10.0,SSW,9.2,-,N/A,,Unknown,200,2013-08-31 03:53:00